This demonstration page uses our WeatherBlox Daily Observations layout. Learn more.

36.19886, -115.1175

Hourly Observations for January 26, 2020

Temp ( °F °C ) Dew Point ( °F °C ) Humidity (%) Winds ( mph kmh ) Pressure ( in mb ) Visibility ( mi km ) Precip ( " mm )
12:53 am 00:53 Clear 48 8.9 30 -1.1 50 50 Calm 30.15 1021 10 16.0934 0 0
1:53 am 01:53 Clear 46 7.8 30 -1.1 54 54 NNW 3 6 30.15 1021 10 16.0934 0 0
2:53 am 02:53 Clear 46 7.8 30 -1.1 54 54 NW 6 9 30.14 1021 10 16.0934 0 0
3:53 am 03:53 Clear 45 7.2 30 -1.1 56 56 WNW 6 9 30.14 1021 10 16.0934 0 0
4:53 am 04:53 Clear 46 7.8 29 -1.7 51 51 W 5 7 30.14 1021 10 16.0934 0 0
5:53 am 05:53 Clear 45 7.2 30 -1.1 56 56 Calm 30.15 1021 10 16.0934 0 0
6:53 am 06:53 Sunny 44 6.7 29 -1.7 55 55 WNW 6 9 30.17 1022 10 16.0934 0 0
7:53 am 07:53 Sunny 48 8.9 31 -0.6 52 52 Calm 30.17 1022 10 16.0934 0 0
8:53 am 08:53 Sunny 52 11.1 32 0 47 47 Calm 30.17 1022 10 16.0934 0 0
9:53 am 09:53 Sunny 55 12.8 33 0.6 44 44 SE 5 7 30.18 1022 10 16.0934 0 0
10:53 am 10:53 Sunny 58 14.4 34 1.1 41 41 ESE 8 13 30.15 1021 10 16.0934 0 0
11:53 am 11:53 Sunny 60 15.6 34 1.1 38 38 ESE 6 9 30.12 1020 10 16.0934 0 0
12:53 pm 12:53 Sunny 61 16.1 33 0.6 35 35 Calm 30.08 1019 10 16.0934 0 0
1:53 pm 13:53 Sunny 63 17.2 33 0.6 33 33 SE 5 7 30.04 1017 10 16.0934 0 0
2:53 pm 14:53 Sunny 64 17.8 34 1.1 33 33 NE 9 15 30.02 1017 10 16.0934 0 0
3:53 pm 15:53 Sunny 63 17.2 34 1.1 34 34 ENE 8 13 30.02 1017 10 16.0934 0 0
4:53 pm 16:53 Mostly Sunny 63 17.2 34 1.1 34 34 NE 6 9 30.01 1016 10 16.0934 0 0
5:53 pm 17:53 Clear 60 15.6 34 1.1 38 38 NW 5 7 30.04 1017 10 16.0934 0 0
6:53 pm 18:53 Clear 58 14.4 34 1.1 41 41 NNW 8 13 30.07 1018 10 16.0934 0 0
7:53 pm 19:53 Mostly Cloudy 58 14.4 34 1.1 41 41 NNW 8 13 30.09 1019 10 16.0934 0 0
8:53 pm 20:53 Clear 56 13.3 33 0.6 42 42 N 8 13 30.1 1019 10 16.0934 0 0
9:53 pm 21:53 Clear 52 11.1 33 0.6 49 49 W 6 9 30.12 1020 10 16.0934 0 0
10:53 pm 22:53 Clear 51 10.6 33 0.6 50 50 NW 5 7 30.13 1020 10 16.0934 0 0
11:53 pm 23:53 Clear 56 13.3 32 0 40 40 N 5 7 30.13 1020 10 16.0934 0 0

Powered by AerisWeather